EUTELSAT 16A

Last updated on Jan. 26, 2020, 4:40 a.m. UTC

1 37836U 11057A   20025.35257552  .00000096  00000-0  00000-0 0  9999
2 37836   0.0648  22.8231 0004920 283.9230 320.2755  1.00272261 30375
UTC
Height (km)
Latitude
Longitude
Inclination
Orbital Period
UTC large
Height (km)
Speed (km/s)
/
Latitude / Longitude
Inclination (degrees)
Orbital Period (minutes)
Azimuth
Elevation
Range (km)
Doppler Factor
iOS Compass Heading
iOS Angle

Next 30 passes for location: Hong Kong

Rise time Rise Azimuth (degrees) Set time Set Azimuth (degrees) Duration Max altitude (degrees)

No matching passes for this satellites